Printer-friendly version

IAU Minor Planet Center

Minor Planet Center

MPEC 2008-X61 : COMET P/2008 T4 (HILL)

The following Minor Planet Electronic Circular may be linked-to from your own Web pages, but must not otherwise be redistributed electronically.


Read MPEC 2008-X60 Read MPEC 2008-X62


M.P.E.C. 2008-X61                                Issued 2008 Dec. 8, 00:13 UT

     The Minor Planet Electronic Circulars contain information on unusual
         minor planets and routine data on comets.  They are published
   on behalf of Commission 20 of the International Astronomical Union by the
          Minor Planet Center, Smithsonian Astrophysical Observatory,
                          Cambridge, MA 02138, U.S.A.

             Prepared using the Tamkin Foundation Computer Network

                              MPC@CFA.HARVARD.EDU
          URL http://www.cfa.harvard.edu/iau/mpc.html  ISSN 1523-6714

                            COMET P/2008 T4 (HILL)

Observations:
    PK08T040  C2008 11 29.46531 01 25 27.37 +07 56 08.5                 EX061349
    PK08T040  C2008 11 29.47123 01 25 27.32 +07 56 09.8                 EX061349
    PK08T040  C2008 11 29.47706 01 25 27.30 +07 56 10.6          17.8 T EX061349
    PK08T040  C2008 12 02.51657 01 25 20.12 +08 05 37.2                 EX061900
    PK08T040  C2008 12 02.52454 01 25 20.13 +08 05 38.3          17.9 N EX061900
    PK08T040  C2008 12 03.43852 01 25 20.72 +08 08 48.3          18.7 N EX061E85
    PK08T040  C2008 12 03.44508 01 25 20.77 +08 08 49.9          18.6 N EX061E85
    PK08T040  C2008 12 03.44728 01 25 20.74 +08 08 50.2          18.7 N EX061E85
    PK08T040  C2008 12 05.76281 01 25 28.74 +08 16 58.4          18.0 N EX061B49
    PK08T040  C2008 12 05.77143 01 25 28.83 +08 16 59.9          17.8 N EX061B49
    PK08T040  C2008 12 05.78005 01 25 28.91 +08 17 02.7          17.9 N EX061B49

Observer details:
349 Ageo.  Observer K. Kadota.  0.25-m f/5.0 reflector + CCD.
900 Moriyama.  Observer Y. Ikari.  0.26-m f/7.0 reflector + CCD.
B49 Paus Observatory, Sabadell.  Observer J. Camarasa.  0.25-m f/4 Newtonian
    reflector + CCD.
E85 Farm Cove.  Observer J. McCormick.  0.35-m f/10 Schmidt-Cassegrain + CCD.

Orbital elements:
    P/2008 T4 (Hill)
Epoch 2009 Jan. 9.0 TT = JDT 2454840.5
T 2008 Dec. 23.91678 TT                                 MPC
q   2.5118708            (2000.0)            P               Q
n   0.10510150     Peri.    1.24757     +0.69561908     -0.71421970
a   4.4469621      Node    44.68329     +0.65817101     +0.59033815
e   0.4351490      Incl.    6.32654     +0.28796706     +0.37602006
P   9.38
Residuals in seconds of arc
080928 704  0.4+  0.1+    081018 473  0.1+  0.3-    081104 850  0.0   0.2-
080928 704  0.5+  1.0+    081018 473  0.1+  0.3-    081104 056  0.3+  0.1+
080928 704  0.4+  0.7+    081020 G96  0.4-  0.1-    081104 056  0.3+  0.4+
080928 704  0.4+  0.3+    081020 G96  0.2+  0.1-    081104 056  0.2+  0.0
080928 704  0.1+  0.2+    081020 G96  0.3-  0.4-    081105 349  0.9+  0.1+
080929 703  0.5-  0.8-    081020 G96  0.2-  0.3-    081105 349  1.0+  0.2+
080929 703  0.5-  0.9+    081020 G96  0.4-  0.3-    081107 204  0.1+  0.1-
080929 703  0.0   0.6+    081020 G96  0.1-  0.1-    081108 204  0.1-  0.0
080929 703  1.0-  0.4-    081020 G96  0.2+  0.2-    081109 056  1.0+  0.9+
080930 704  0.8+  1.3+    081020 G96  0.7-  0.1-    081109 056  0.3-  0.1-
080930 704  0.0   1.3+    081020 215  0.3+  0.4-    081109 056  0.3-  0.4+
080930 704  0.1+  0.7-    081020 215  0.2+  0.4-    081114 213  0.7-  0.7+
080930 704  0.9+  1.1+    081020 A71 (3.5-  1.4+)   081114 213  0.6-  0.3+
080930 704  0.0   1.1+    081020 215  0.1+  0.4-    081114 213  0.7-  0.2-
081008 691  0.2-  0.0     081020 A71  0.1+  0.2-    081116 104  0.6-  0.3+
081008 691  0.1-  0.0     081020 J47  0.3+  0.2-    081116 104  0.2-  0.4+
081008 691  0.0   0.1-    081020 J47  0.3+  0.2-    081116 104  0.3-  0.1+
081008 703  0.6+  1.3+    081020 J47  0.5+  0.0     081116 473  0.2-  0.1-
081008 703  0.4-  0.2-    081020 J47  0.5+  0.2-    081116 473  0.0   0.1-
081008 703  0.9-  0.4+    081025 704  0.2+  0.5-    081118 B42  0.5-  0.2+
081008 703  0.4-  0.0     081025 704  0.0   0.8-    081118 B42  0.4-  1.0+
081008 703  1.0-  0.6-    081025 704  0.3-  0.8-    081118 585  1.0+  0.1-
081008 703  0.6-  1.0-    081025 704  0.1+  0.9-    081118 585  1.4+  0.1+
081008 703  0.6-  0.9-    081025 704  0.8-  0.5-    081118 585 (2.2+  0.1+)
081008 703  1.4-  0.1-    081025 B37  0.1-  0.4+    081118 585  1.1+  0.1+
081008 G96  0.6+  0.1+    081026 B37  0.5-  0.5+    081118 585  0.3-  0.2+
081008 G96  0.2+  0.1-    081026 B37  0.4+  0.2+    081119 704  1.5+  0.1+
081008 G96  0.2-  0.4-    081026 B37  0.2+  0.2+    081119 704  0.2+  0.4+
081008 G96  0.1-  0.1-    081026 673  0.4+  0.5+    081119 704  0.4-  0.9+
081008 900  1.1+  0.3-    081026 673  0.4+  0.6+    081119 704  1.5-  0.4+
081008 900  0.8+  0.8-    081026 673  0.0   0.5+    081119 704 (2.1-  0.6+)
081008 E16  1.0+  0.7+    081026 H45  0.3+  0.2+    081119 900  0.4-  0.0
081008 E16  0.8+  0.1+    081026 H45  0.2+  0.1+    081119 900  0.5-  0.3-
081008 E16  0.5+  0.7-    081026 673  0.0   0.4+    081119 130  0.3-  0.6-
081009 A55  0.3+  0.4+    081026 H45  0.4-  0.3-    081119 130  0.5-  0.3-
081009 A55  0.5+  0.1-    081026 H45  0.0   0.1-    081119 130  0.1+  0.1-
081009 A55  0.1+  0.1+    081026 H45  0.1+  0.4-    081119 130  0.2+  0.3+
081009 673  0.9+  0.4+    081027 372  0.9+  0.3-    081120 372  1.2-  0.6+
081009 673  0.1+  0.8+    081027 372  0.7+  0.1+    081120 900  0.2-  0.2-
081009 673  0.5+  0.1+    081027 372  0.6-  0.4+    081120 900  0.3-  0.0
081009 673  1.1-  0.7-    081028 585  0.7-  0.5+    081124 G96  1.0+  0.1+
081009 349  0.1-  0.4+    081028 585  0.6+  0.1-    081124 G96  1.5+  0.4+
081009 349  0.4-  0.5+    081028 585  0.8+  0.1-    081124 704 (2.3+  0.2-)
081009 349  0.3-  0.6+    081028 585  0.2-  0.5-    081124 G96  0.5+  0.3+
081009 104  0.1-  0.2+    081028 585  0.1+  0.4-    081124 G96  1.2+  0.2+
081009 104  0.9-  0.4+    081028 585  0.2+  0.5-    081124 704  1.8+  0.2+
081009 104  1.2-  1.0+    081028 585  0.6+  0.7-    081124 704  0.1+  0.3+
081009 204  0.2+  0.1+    081028 585  1.4-  0.8-    081124 704  1.1-  1.9+
081009 204  0.2+  0.1+    081029 G96  0.2-  0.3-    081127 E85  1.0-  0.2-
081010 850  0.7-  0.8-    081029 G96  0.2-  0.5-    081127 E85  0.2-  0.7-
081010 850  0.0   0.4-    081029 G96  0.0   0.3-    081127 E85  1.1-  0.2+
081010 850  0.3+  0.6-    081029 G96  0.0   0.2-    081129 349  0.1-  0.1-
081010 850  0.6-  0.3-    081030 J47  0.1+  0.3+    081129 349  0.3-  0.1+
081010 A77 (1.6-  3.2+)   081030 J47  0.1+  0.2-    081129 349  0.0   0.1-
081010 A77  0.1-  0.0     081030 J47  0.0   0.2-    081129 213  0.7-  0.2-
081010 629 (2.8+  0.5+)   081030 J47  0.1+  0.1-    081129 213  0.1+  0.4+
081010 A77  0.1+  0.0     081031 850  0.5+  0.2-    081129 213  0.3-  0.1+
081010 B49  0.6+  0.2+    081031 850  0.9-  0.6+    081202 900  0.2-  0.2+
081010 B49  0.4+  1.0-    081031 850  0.4+  0.0     081202 900  0.1+  0.3-
081010 118  0.0   0.2-    081031 704  0.9+  0.1-    081203 E85  1.1-  0.2-
081010 118  0.0   0.2-    081031 704  0.0   0.0     081203 E85  0.3-  0.1+
081010 213  0.8-  0.4-    081031 704  0.1-  0.5-    081203 E85  0.8-  0.1-
081011 213  0.7-  0.6-    081031 704  0.2+  0.7-    081205 B49  0.1+  0.6-
081011 213  0.1+  0.5-    081031 704  1.4-  0.0     081205 B49  0.9+  1.1-
081018 900  0.6+  0.5-    081104 850  0.1-  0.2+    081205 B49  1.6+  0.2-
081018 900  0.3-  0.1+    081104 850  0.2+  0.0

Brian G. Marsden             (C) Copyright 2008 MPC           M.P.E.C. 2008-X61

Read MPEC 2008-X60 Read MPEC 2008-X62


Our Web policy. Index to the CBAT/MPC/ICQ pages.


Valid HTML 4.01!